Dewpoint
66 66 65 65 65 65 66 66 66 66 66 66 66 65 65 64 64 64 63 62 62 60 60 62 63 63 63 62 62 63 64 63 63 64 65 66 66 67 67 68 68 67 64 64 63 62 63 63 62 61 65 65 64 63 62 62 62 61 62 61 61 60 60 60 60 60 60 59 59 59 59 59 59 59 58 58 58 58 58 58 58 58 58 58 58
65 65 64 64 64 64 65 65 66 65 65 65 65 65 65 64 63 62 63 63 61 61 61 61 63 63 62 62 63 64 64 64 63 63 64 66 66 67 68 68 68 68 67 63 63 63 63 63 63 61 64 65 65 64 63 62 62 62 62 62 61 62 61 60 60 60 60 59 59 59 58 59 59 59 59 59 59 59 59 58 58 58 57 57 57
64 64 64 63 63 64 65 66 66 65 66 65 66 66 65 64 64 64 63 63 62 61 63 62 62 62 64 63 63 64 65 64 64 64 64 66 66 66 67 68 68 68 67 67 65 63 63 63 63 62 61 66 66 65 64 63 63 63 62 62 62 61 62 61 61 60 60 60 59 59 59 58 58 58 59 59 58 58 58 58 58 58 57 57 56
65 64 64 64 63 63 64 65 65 65 66 65 66 65 66 66 65 65 64 64 64 63 63 63 61 62 62 63 64 64 65 65 65 65 64 65 65 66 66 67 68 67 67 67 66 65 64 62 63 64 63 62 65 65 65 64 64 63 63 62 62 62 62 61 61 61 60 59 59 60 59 59 58 59 59 58 58 58 57 57 57 58 57 56 56
64 64 64 63 63 63 64 65 66 66 66 66 66 65 65 66 65 65 65 64 64 63 63 62 62 62 63 64 65 65 65 64 64 65 65 64 64 65 65 66 66 68 68 68 68 67 66 64 62 63 63 63 64 65 64 64 65 65 64 63 63 62 62 62 61 61 61 60 59 59 59 59 59 59 58 58 58 57 57 57 57 56 56 57 56
64 63 63 63 63 64 64 66 66 65 65 65 65 65 65 65 65 64 65 63 63 63 62 62 62 63 62 62 64 64 63 63 64 64 64 64 64 64 65 65 65 65 66 68 68 68 68 67 66 66 65 65 63 63 63 61 62 65 65 64 64 63 63 62 62 62 61 60 59 60 59 59 58 58 58 58 57 57 57 57 57 57 57 56 56
65 64 64 63 64 65 66 65 65 65 65 65 65 63 64 64 64 64 63 63 63 63 62 63 63 63 63 63 63 64 64 64 64 64 64 63 64 65 64 65 65 66 67 66 67 68 68 68 67 66 65 65 64 63 63 63 63 62 63 66 65 64 64 63 63 62 62 61 60 60 60 59 59 59 58 58 57 58 57 57 57 56 56 56 56
66 66 64 64 65 65 64 64 65 65 65 65 65 63 64 64 64 64 63 63 63 63 63 63 63 64 64 63 63 63 63 63 64 64 64 64 64 64 64 64 64 65 66 65 65 66 68 67 67 67 67 66 65 64 64 64 63 63 63 65 66 66 65 64 63 63 62 61 60 60 60 59 59 59 58 58 57 57 58 57 56 56 56 56 56
66 66 65 65 65 65 65 66 65 65 65 65 64 64 63 63 64 64 63 62 63 63 62 63 63 63 63 62 63 63 63 63 62 62 63 63 63 64 64 64 65 66 65 64 64 65 67 67 67 67 67 67 67 65 65 64 65 65 65 65 65 66 66 65 64 64 63 63 61 61 60 60 59 60 59 59 58 58 58 57 57 56 56 56 56
66 66 65 65 64 64 64 65 64 64 64 64 64 64 63 63 64 63 63 63 62 62 61 62 62 62 62 63 63 64 63 63 63 65 63 63 63 63 63 64 64 64 64 64 64 64 64 64 64 65 65 66 66 67 66 65 65 66 65 65 65 65 66 66 65 64 64 64 63 62 61 61 61 60 59 60 59 58 58 58 57 57 57 56 56
66 66 65 65 64 64 63 64 64 64 64 64 63 63 64 64 62 62 63 63 62 63 62 62 62 63 63 62 61 62 62 62 62 63 64 64 63 63 63 62 64 64 64 64 64 63 62 62 63 63 64 66 66 66 67 66 66 66 65 65 65 65 65 65 66 66 65 65 65 64 64 63 61 61 60 60 60 59 59 57 56 57 56 56 56
66 66 65 64 63 63 63 63 63 64 64 64 62 62 63 63 63 63 63 63 63 64 63 62 62 62 61 61 62 61 62 62 61 62 62 62 62 62 62 62 62 63 64 64 64 64 63 64 65 65 65 66 66 66 66 66 66 66 66 66 65 65 65 65 65 65 65 66 65 65 65 64 63 62 61 61 61 60 60 58 57 57 56 56 57
66 65 64 66 63 63 64 63 63 64 64 63 63 63 64 63 64 62 62 62 62 62 63 62 61 60 60 60 60 61 63 62 62 60 61 60 61 61 62 62 61 62 63 64 64 63 63 64 64 64 65 64 64 65 64 63 63 63 64 65 66 66 65 65 65 65 65 65 65 65 65 65 64 63 63 62 61 61 61 60 58 58 57 57 57
66 65 64 64 63 63 63 63 64 63 63 64 62 63 64 64 63 62 62 62 61 63 63 61 58 57 57 57 57 58 60 61 60 59 59 57 59 60 60 60 60 61 62 63 63 63 64 63 63 64 64 65 65 64 62 61 61 62 62 62 63 65 66 65 65 65 64 64 64 64 65 65 65 64 64 64 63 62 61 62 60 59 58 58 58
65 65 64 64 63 64 63 63 63 63 62 62 63 62 63 63 63 61 59 60 62 63 62 60 58 58 58 56 54 54 56 56 58 57 58 57 56 57 57 57 59 61 61 61 61 61 63 63 63 64 64 64 64 62 61 61 59 60 60 59 61 64 64 65 65 64 64 63 64 64 64 64 64 65 64 64 64 63 63 63 62 61 60 59 58
63 65 65 64 62 63 63 62 64 63 62 62 61 63 62 63 63 61 60 59 60 59 61 61 60 58 54 54 54 53 51 52 54 56 58 54 55 54 53 53 56 58 59 60 61 61 62 62 63 63 63 64 64 63 60 57 56 57 58 58 58 61 64 64 64 64 63 64 64 63 63 64 64 64 64 64 63 64 64 64 63 62 61 60 59
64 65 65 64 64 63 63 63 63 63 63 63 63 63 63 63 62 62 60 59 59 59 59 61 60 60 57 54 52 51 51 53 54 52 57 51 50 51 56 52 55 57 58 59 61 61 61 61 62 63 63 63 59 56 54 52 52 55 53 57 58 58 60 64 65 65 65 64 64 64 63 63 63 63 64 64 63 63 63 64 64 64 62 61 61
62 63 64 64 63 63 63 63 63 63 63 63 64 63 63 63 63 62 62 61 59 59 58 59 60 60 61 58 54 52 53 54 53 47 50 50 50 49 50 51 53 54 56 57 58 59 60 60 60 61 61 55 53 53 53 53 54 53 53 54 55 57 55 60 64 65 65 64 66 65 65 64 63 64 64 64 64 63 63 64 64 63 63 62 62
62 62 62 63 63 64 63 63 63 63 64 63 62 63 61 61 62 62 61 62 60 58 58 58 59 60 61 60 61 59 57 54 52 49 45 48 49 49 50 50 51 50 51 54 57 58 59 60 60 61 59 56 54 52 50 50 52 53 54 53 54 54 53 54 60 65 66 64 65 64 65 63 64 64 64 64 63 62 62 62 64 64 64 63 63
61 62 62 63 62 62 62 61 62 62 63 63 62 63 63 61 61 61 61 62 61 58 58 59 58 58 60 59 59 59 58 58 57 53 48 45 45 48 50 52 52 52 51 52 56 57 58 56 50 48 49 49 51 51 50 49 49 50 52 52 52 52 52 52 53 57 63 64 64 63 64 64 64 64 64 63 63 64 64 64 63 63 63 63 63
57 57 57 58 60 59 61 61 62 62 63 62 62 63 61 61 61 62 61 61 61 59 59 59 59 59 60 59 59 57 57 58 58 57 50 46 46 46 46 48 50 50 51 52 54 55 53 50 50 48 49 48 47 48 48 48 48 49 51 52 50 50 50 51 50 52 54 61 62 62 63 63 63 62 61 62 62 62 63 63 63 63 63 63 63
57 57 58 59 59 57 57 58 58 59 61 58 60 60 61 62 62 62 61 61 61 60 59 59 59 60 61 59 58 56 56 57 57 55 50 47 44 45 46 45 46 47 50 48 49 51 50 48 47 45 46 45 45 45 46 47 48 49 50 51 51 49 49 49 48 50 53 57 59 59 59 59 59 59 58 58 59 59 59 60 61 62 62 63 63
57 58 57 58 59 60 58 58 57 59 59 59 60 60 60 61 61 62 61 61 60 60 60 60 59 59 60 60 58 57 56 55 55 54 52 48 46 46 46 46 46 45 48 52 47 47 47 47 45 45 45 44 44 45 45 46 49 49 50 51 50 50 48 47 46 46 51 54 56 57 56 56 56 56 56 55 55 56 56 56 57 59 60 61 62
56 56 56 57 58 58 58 58 59 58 58 59 60 61 62 62 62 61 61 60 60 60 60 59 58 58 58 59 59 58 57 56 56 55 51 47 46 45 44 43 44 42 42 44 43 45 46 46 46 45 44 43 42 44 46 46 48 48 48 49 50 49 49 48 45 45 45 48 51 54 55 55 54 54 54 54 54 53 54 53 53 54 56 56 57
56 56 57 58 59 58 57 57 57 58 58 59 60 62 62 61 61 60 60 59 59 59 58 57 58 57 57 57 58 57 57 56 55 55 53 48 47 44 41 40 39 36 35 36 34 39 44 45 45 45 45 45 45 44 43 44 45 48 47 49 48 49 48 49 48 46 44 45 48 50 53 53 53 53 52 52 52 52 51 51 49 49 50 52 54
55 55 57 57 57 57 57 57 57 56 58 59 60 60 60 60 60 59 59 58 58 58 56 54 53 54 53 48 49 52 50 51 53 55 53 48 44 40 41 41 39 34 34 26 30 32 36 42 44 44 43 43 44 45 45 45 47 47 46 45 47 48 47 47 48 48 46 46 47 49 50 51 52 51 51 51 50 49 50 49 48 48 48 48 50
55 55 58 57 57 57 57 58 57 56 58 58 59 59 58 58 59 58 58 57 54 52 51 51 52 50 47 45 47 47 48 49 47 49 50 47 44 42 40 38 38 38 32 26 28 32 36 40 43 44 44 45 44 43 43 43 46 48 46 42 44 46 46 47 47 46 48 47 45 45 46 47 48 49 49 49 49 50 48 48 48 47 48 48 49
55 54 54 54 55 56 57 57 55 54 55 55 55 53 53 53 53 52 52 53 50 51 52 50 48 47 46 47 46 47 50 48 48 49 47 45 44 44 40 38 38 33 35 32 30 30 35 37 40 44 46 45 45 44 45 43 44 49 47 42 41 44 46 46 46 47 46 45 43 43 43 44 45 46 47 49 49 49 48 47 47 46 48 48 48
54 53 53 54 56 55 51 50 51 52 53 53 52 51 51 50 50 50 50 51 50 48 49 50 50 50 50 49 48 48 48 48 47 49 49 49 48 48 47 40 37 32 33 33 33 35 35 34 34 37 42 46 48 47 44 41 45 48 46 43 41 42 46 46 45 46 46 45 45 44 43 43 44 45 47 47 48 48 47 46 46 46 47 47 47
56 55 54 53 55 56 53 53 53 54 51 51 52 52 50 49 47 48 49 50 51 52 52 49 49 49 50 49 47 47 48 46 48 49 48 48 47 48 49 48 42 35 39 40 39 43 36 36 33 32 37 44 46 48 46 44 49 50 45 42 42 40 46 45 44 43 44 44 45 44 43 42 43 44 47 46 47 46 46 45 45 45 47 46 47
52 50 51 51 51 51 52 50 49 50 52 50 49 48 48 48 50 50 50 50 50 50 51 52 51 49 48 49 49 49 50 49 48 47 49 48 48 47 48 50 48 42 40 41 39 40 44 38 37 34 33 37 39 41 43 44 48 49 45 44 39 43 48 44 44 43 43 43 43 42 43 43 42 43 43 45 47 47 47 46 45 46 46 45 46
50 50 50 51 51 50 50 50 48 50 48 47 46 47 48 49 49 49 50 50 50 50 50 49 48 49 49 49 49 49 49 47 47 46 47 49 48 47 47 48 47 46 44 42 39 39 44 40 38 35 36 36 33 30 32 29 38 49 45 44 40 50 43 40 44 44 44 43 43 43 45 45 44 42 42 43 43 44 44 45 46 46 44 45 45
51 51 49 48 49 50 48 49 49 50 48 48 48 48 49 48 48 48 48 48 49 49 49 49 50 49 49 49 49 50 51 49 48 49 46 48 49 49 47 47 47 44 42 41 40 41 42 47 45 39 41 37 32 29 26 30 31 34 42 43 41 39 38 37 39 44 44 43 43 44 44 44 43 41 40 40 41 42 42 43 45 45 44 43 44
52 52 48 49 47 47 48 48 49 49 49 49 50 50 48 46 47 50 49 48 49 49 49 48 49 51 49 46 47 49 49 45 46 44 44 42 41 43 47 46 45 47 47 46 45 44 40 43 40 41 40 41 33 34 35 40 39 42 33 41 39 36 36 34 35 38 43 44 43 44 44 42 41 42 41 40 41 42 44 43 43 44 43 43 42
52 50 49 48 46 47 47 47 47 48 49 51 50 49 49 49 50 50 49 48 49 47 46 47 47 47 47 47 46 48 49 45 50 48 46 43 42 43 45 45 45 46 45 46 46 43 40 41 45 37 40 44 40 36 38 40 42 40 38 37 40 38 37 35 32 31 40 43 43 43 43 43 42 41 42 42 42 42 43 42 42 43 43 43 42
49 51 50 48 49 47 45 46 47 48 50 49 49 49 50 49 47 47 48 48 48 47 47 45 46 46 46 47 46 47 49 48 49 49 48 45 46 47 46 47 46 46 48 46 43 44 42 40 41 37 40 42 44 42 36 37 40 39 39 37 40 37 37 37 35 32 35 42 43 43 44 44 44 43 43 43 42 42 42 42 42 42 43 42 42
51 51 51 48 50 46 47 47 48 50 50 48 47 47 50 50 48 48 46 47 48 47 46 45 49 46 47 45 46 49 50 47 47 50 48 47 47 47 48 46 45 48 49 47 46 46 44 42 43 41 41 43 42 41 37 34 36 37 41 40 42 43 44 44 39 34 40 42 43 43 43 43 43 44 44 43 43 43 42 42 42 42 42 43 42
51 51 46 48 49 49 48 47 48 49 50 50 49 50 51 51 49 48 48 49 50 50 47 47 47 47 48 46 49 49 49 48 47 50 50 50 50 48 48 47 46 50 50 48 48 47 45 45 44 43 42 43 42 43 42 37 38 41 43 44 44 45 45 44 45 43 44 38 43 40 42 42 43 43 43 44 43 43 42 42 42 42 42 42 42
52 48 47 47 48 49 49 49 48 48 49 50 51 52 52 52 51 52 51 51 52 51 50 49 48 48 50 50 48 48 49 52 52 50 50 50 51 50 49 49 48 47 48 48 47 47 47 46 46 45 45 45 44 42 42 41 42 43 44 44 43 45 46 43 44 43 45 46 43 40 41 43 44 43 42 42 41 42 42 42 42 42 41 41 40
50 50 49 49 48 48 47 49 49 48 47 48 50 51 50 52 51 52 51 51 51 51 50 52 51 50 53 54 53 53 52 52 51 51 52 51 50 49 50 50 50 50 47 47 47 45 45 46 45 44 44 43 45 45 44 44 44 43 43 44 41 41 42 44 42 42 44 43 41 41 40 41 40 40 41 41 41 41 42 43 43 43 42 40 40
51 48 49 50 49 48 48 48 49 49 48 48 50 49 49 50 51 52 53 51 51 53 53 54 54 55 54 53 51 51 53 52 49 50 53 54 52 50 51 50 49 48 48 47 46 45 46 46 45 46 45 44 44 44 43 42 42 42 43 45 43 43 42 42 42 43 41 41 41 39 38 40 38 40 40 40 39 43 43 43 43 43 42 40 40
53 50 49 49 50 46 47 48 47 50 49 49 50 47 48 49 51 51 54 52 53 54 54 54 53 55 55 53 53 55 51 49 46 43 42 44 50 53 51 51 50 50 48 47 46 46 46 44 44 45 43 43 43 45 44 45 44 43 41 42 40 41 41 41 42 43 42 39 39 37 37 39 41 40 40 39 40 42 41 41 41 41 41 41 41
54 54 54 52 52 51 47 48 48 49 49 50 45 42 43 45 51 53 53 53 54 55 54 54 53 54 54 54 52 53 51 50 46 42 41 41 41 41 42 47 51 49 49 48 47 46 45 46 45 44 43 43 44 44 43 43 44 42 41 40 40 41 40 39 38 41 44 40 39 38 37 39 40 39 39 40 41 42 41 41 43 43 42 41 41
54 54 54 54 53 52 52 51 51 52 51 48 43 41 42 43 49 54 54 54 55 54 53 54 53 53 54 54 52 53 52 52 51 46 43 41 40 39 38 38 37 39 44 48 46 47 45 45 45 44 44 43 43 43 43 42 41 41 41 42 41 40 39 38 38 37 41 41 39 38 39 40 41 41 40 40 40 41 42 42 41 40 41 42 42
54 54 53 54 54 54 53 52 51 53 53 44 44 43 42 44 48 52 55 55 55 54 54 54 53 52 53 53 54 55 55 56 56 52 46 43 40 39 39 38 37 35 34 37 43 47 46 45 45 44 43 44 43 42 43 43 43 41 40 41 39 39 38 37 38 37 38 40 39 38 37 39 40 39 40 41 40 41 40 39 40 39 40 41 42
53 53 53 53 54 54 54 53 53 53 53 46 43 44 46 44 45 50 55 55 54 54 53 53 52 52 53 53 52 53 52 54 53 53 50 44 41 40 41 41 37 37 38 38 38 39 43 44 44 45 45 45 44 43 42 42 42 40 39 38 38 37 36 35 37 39 39 41 38 37 36 37 38 35 33 34 37 37 37 38 38 39 40 39 40
53 53 53 53 52 52 53 53 51 53 53 44 43 45 46 46 45 46 52 54 53 53 53 53 52 50 52 52 50 51 53 53 53 52 52 46 44 45 45 44 43 41 38 38 41 46 47 45 46 46 44 43 41 40 40 41 39 39 38 36 35 34 36 37 35 37 35 37 36 34 32 33 35 33 34 35 37 34 35 37 38 39 39 39 39
53 53 52 52 52 53 53 52 51 50 52 43 43 43 45 45 44 49 51 50 51 53 54 54 54 53 54 51 49 46 48 53 46 45 48 48 48 47 46 42 38 34 35 37 36 40 44 43 40 37 37 38 37 36 38 38 38 38 39 37 38 36 34 33 32 34 34 36 36 34 33 33 35 33 33 34 35 33 34 34 37 39 39 39 38
52 53 54 54 54 54 53 52 52 51 51 44 41 42 43 43 44 50 51 51 51 51 52 53 54 54 53 51 49 45 49 49 40 41 44 46 49 48 45 42 40 35 34 36 36 35 36 36 35 35 35 34 35 35 36 37 36 37 36 34 33 34 33 31 34 33 34 35 36 34 32 31 33 32 33 34 33 33 35 33 35 38 38 37 38
45 47 52 53 54 54 54 53 53 52 51 48 42 42 42 42 45 51 51 51 51 51 50 52 53 53 53 52 52 48 50 47 37 37 40 48 49 47 44 42 39 37 36 37 36 34 36 35 35 34 34 34 34 34 34 34 36 39 33 31 33 34 33 33 31 33 34 35 35 34 31 31 32 32 31 32 33 34 34 34 34 35 36 36 36
43 44 46 51 53 53 53 53 53 52 51 49 43 42 42 42 44 49 50 48 48 49 50 51 52 52 51 50 49 49 49 43 37 36 38 47 49 47 45 43 41 39 37 38 35 35 35 33 33 35 33 34 37 35 37 35 35 39 37 36 35 34 33 34 34 33 31 32 34 35 31 31 31 32 32 31 30 32 34 34 35 34 33 33 35